Other Surface Observations
Issued by NWS Tucson, AZ

Home | Current Version | Previous Version | Text Only | Print | Product List | Glossary On
Versions: 1 2 3 4 5 6 7 8 9 10 11 12 13 14 15 16 17 18 19 20 21 22 23 24 25 26 27 28 29 30 31 32 33 34 35 36 37 38 39 40 41 42 43 44 45 46 47 48 49 50
644
SXUS55 KTWC 220015
OSOTWC

WEATHER ROUNDUP FOR SOUTHEAST ARIZONA
NATIONAL WEATHER SERVICE TUCSON AZ
515 PM MST SAT JAN 21 2017

AZZ504>506-514-220115-
LOCATION       SKY/WX    TMP DP  RH WIND       PRES   REMARKS
TUCSON         PTCLDY    55  28  35 W9G21     29.94R
DAVIS-MONTHAN  CLEAR     53  28  38 W13G21    29.92R
CHILDRENS PARK N/A      N/A N/A  38 W11               PIMA CO DEQ
ALVERNON/22ND  N/A       55 N/A N/A W13               PIMA CO DEQ
CHERRY/GLENN   N/A      N/A N/A N/A N/A               PIMA CO DEQ
TANGERINE      N/A       54 N/A N/A W10               PIMA CO DEQ
CONTL RANCH    N/A       56  28  34 W13               PIMA CO DEQ
GRANT/1ST      N/A       55  28  35 W14               PIMA CO DEQ
CRAYCROFT/22ND N/A       54  28  36 N/A               PIMA CO DEQ
GOLFLINKS/KOLB N/A       54  28  36 W13               PIMA CO DEQ
AJO/12TH       N/A       54  29  38 W14               PIMA CO DEQ
FAIRGROUNDS    N/A       53 N/A N/A W21               PIMA CO DEQ
SAGUARO        N/A       54  28  37 W15G22            *SABINO CYN
SAN CARLOS     N/A       48  33  55 W11G19            *SAN CARLOS
GREEN VALLEY   N/A       54  27  35 SW14              PIMA CO DEQ
HORSE CAMP CYN N/A       44  29  56 W17G40            *ARAVAIPA CYN
RINCON MTNS    NOT AVBL
$$

AZZ509>511-220115-
LOCATION       SKY/WX    TMP DP  RH WIND       PRES   REMARKS
SAFFORD        CLOUDY    46  33  60 NW21G29   29.85R
STRAY HORSE    N/A       24  23  96 N/A               *
TRAIL CABIN    NOT AVBL
BLACK HILLS    NOT AVBL
DRY LAKE       N/A       25  25  100 W8G15            *NATANES MTNS
NOON CREEK     NOT AVBL
COLUMBINE      NOT AVBL
GUTHRIE        N/A       28  28  99 W34G55            *SW OF GUTHRIE
$$

AZZ502-503-513-220115-
LOCATION       SKY/WX    TMP DP  RH WIND       PRES   REMARKS
NOGALES        CLEAR     49  25  39 SW13      29.94R
SELLS          N/A       55  33  43 NE10G16           *
SASABE         N/A       52  28  40 W13G21            *ALTAR VLY
HOPKINS        N/A       31  29  94 W13G24            *SANTA RITA MTNS
CARR CYN       N/A       40  24  52 E3G17             *W OF HEREFORD
$$

AZZ507-508-512-220115-
LOCATION       SKY/WX    TMP DP  RH WIND       PRES   REMARKS
SIERRA VISTA   CLEAR     44  25  46 W24G32    29.91R
DOUGLAS        PTCLDY    49  25  39 NW18G28   29.90R
EMPIRE MTNS    NOT AVBL
MULESHOE RANCH N/A       45  24  44 NW15G30           *PRESERVE
HEADQUARTERS   NOT AVBL
$$

.............................NOTES.............................
THIS IS AN AUTOMATED COLLECTIVE WITH MINIMAL QUALITY CONTROL.
PIMA CO DEQ SITES HAVE NONSTANDARD WIND SENSOR HEIGHTS.
PIMA CO DEQ SITES DO NOT REPORT WIND GUSTS.
* INDICATES WIND SENSORS LOCATED AT 20 FEET INSTEAD OF 33 FEET.
..............................KEY..............................
SKY/WX - SKY CONDITION/WEATHER
TMP    - TEMPERATURE IN FAHRENHEIT
DP     - DEWPOINT IN FAHRENHEIT
RH     - RELATIVE HUMIDITY IN PERCENT
WIND   - DIRECTION AND SPEED IN MILES PER HOUR (MPH)
VRB    - VARIABLE WIND DIRECTION
PRES   - MEAN SEA LEVEL PRESSURE IN INCHES OF MERCURY
         F - FALLING PRESSURE   R - RISING PRESSURE
         S - STEADY PRESSURE
VSB    - VISIBILITY IN MILES
HX     - HEAT INDEX IN FAHRENHEIT
WCI    - WIND CHILL INDEX IN FAHRENHEIT
N/A    - NOT AVAILABLE
AFB    - AIR FORCE BASE
         DAVIS-MONTHAN IS DAVIS-MONTHAN AIR FORCE BASE
CYN    - CANYON
MTNS   - MOUNTAINS
NCA    - NATIONAL CONSERVATION AREA
NR     - NEAR
VLY    - VALLEY
CONTL  - CONTINENTAL
PIMA CO DEQ - PIMA COUNTY DEPT OF ENVIRONMENTAL QUALITY



USA.gov is the U.S. government's official web portal to all federal, state and local government web resources and services.